date,time,SUV Intensity [MED/Hr],UV Index,Daily total [MED],Since Last [MED]
16/09/2023,00:01:20,0.000,0.0,0.0,0.0
16/09/2023,00:02:20,0.000,0.0,0.0,0.0
16/09/2023,00:03:20,0.000,0.0,0.0,0.0
16/09/2023,00:04:20,0.000,0.0,0.0,0.0
16/09/2023,00:05:20,0.000,0.0,0.0,0.0
16/09/2023,00:06:20,0.000,0.0,0.0,0.0
16/09/2023,00:07:20,0.001,0.0,0.0,0.0
16/09/2023,00:08:20,-0.000,0.0,0.0,0.0
16/09/2023,00:09:20,0.000,0.0,0.0,0.0
16/09/2023,00:10:20,0.000,0.0,0.0,0.0
16/09/2023,00:11:20,0.001,0.0,0.0,0.0
16/09/2023,00:12:21,0.001,0.0,0.0,0.0
16/09/2023,00:13:20,0.000,0.0,0.0,0.0
16/09/2023,00:14:20,-0.000,0.0,0.0,0.0
16/09/2023,00:15:20,0.000,0.0,0.0,0.0
16/09/2023,00:16:20,-0.000,0.0,0.0,0.0
16/09/2023,00:17:20,-0.000,0.0,0.0,0.0
16/09/2023,00:18:20,-0.000,0.0,0.0,0.0
16/09/2023,00:19:21,-0.000,0.0,0.0,0.0
16/09/2023,00:20:20,0.000,0.0,0.0,0.0
16/09/2023,00:21:20,0.000,0.0,0.0,0.0
16/09/2023,00:22:20,0.001,0.0,0.0,0.0
16/09/2023,00:23:18,0.000,0.0,0.0,0.0
16/09/2023,00:24:18,0.000,0.0,0.0,0.0
16/09/2023,00:25:20,0.000,0.0,0.0,0.0
16/09/2023,00:26:20,-0.000,0.0,0.0,0.0
16/09/2023,00:27:20,0.001,0.0,0.0,0.0
16/09/2023,00:28:20,0.000,0.0,0.0,0.0
16/09/2023,00:29:20,0.000,0.0,0.0,0.0
16/09/2023,00:30:20,0.000,0.0,0.0,0.0
16/09/2023,00:31:20,-0.000,0.0,0.0,0.0
16/09/2023,00:32:20,0.000,0.0,0.0,0.0
16/09/2023,00:33:20,0.000,0.0,0.0,0.0
16/09/2023,00:34:20,0.000,0.0,0.0,0.0
16/09/2023,00:35:20,0.000,0.0,0.0,0.0
16/09/2023,00:36:21,0.000,0.0,0.0,0.0
16/09/2023,00:37:20,0.002,0.0,0.0,0.0
16/09/2023,00:38:20,0.000,0.0,0.0,0.0
16/09/2023,00:39:20,0.000,0.0,0.0,0.0
16/09/2023,00:40:20,0.000,0.0,0.0,0.0
16/09/2023,00:41:20,0.001,0.0,0.0,0.0
16/09/2023,00:42:20,0.001,0.0,0.0,0.0
16/09/2023,00:43:20,0.001,0.0,0.0,0.0
16/09/2023,00:44:20,0.000,0.0,0.0,0.0
16/09/2023,00:45:21,0.001,0.0,0.0,0.0
16/09/2023,00:46:20,-0.000,0.0,0.0,0.0
16/09/2023,00:47:20,0.001,0.0,0.0,0.0
16/09/2023,00:48:20,0.000,0.0,0.0,0.0
16/09/2023,00:49:20,0.001,0.0,0.0,0.0
16/09/2023,00:50:20,0.001,0.0,0.0,0.0
16/09/2023,00:51:20,0.000,0.0,0.0,0.0
16/09/2023,00:52:20,0.000,0.0,0.0,0.0
16/09/2023,00:53:21,0.000,0.0,0.0,0.0
16/09/2023,00:54:20,0.000,0.0,0.0,0.0
16/09/2023,00:55:20,0.000,0.0,0.0,0.0
16/09/2023,00:56:21,0.001,0.0,0.0,0.0
16/09/2023,00:57:20,0.000,0.0,0.0,0.0
16/09/2023,00:58:20,0.001,0.0,0.0,0.0
16/09/2023,00:59:20,0.000,0.0,0.0,0.0
16/09/2023,01:00:21,0.001,0.0,0.0,0.0
16/09/2023,01:01:20,0.001,0.0,0.0,0.0
16/09/2023,01:02:20,0.001,0.0,0.0,0.0
16/09/2023,01:03:20,0.002,0.0,0.0,0.0
16/09/2023,01:04:20,0.001,0.0,0.0,0.0
16/09/2023,01:05:20,0.001,0.0,0.0,0.0
16/09/2023,01:06:20,0.001,0.0,0.0,0.0
16/09/2023,01:07:20,-0.000,0.0,0.0,0.0
16/09/2023,01:08:20,0.002,0.0,0.0,0.0
16/09/2023,01:09:21,0.001,0.0,0.0,0.0
16/09/2023,01:10:20,0.001,0.0,0.0,0.0
16/09/2023,01:11:20,0.001,0.0,0.0,0.0
16/09/2023,01:12:21,0.002,0.0,0.0,0.0
16/09/2023,01:13:20,0.001,0.0,0.0,0.0
16/09/2023,01:14:20,0.001,0.0,0.0,0.0
16/09/2023,01:15:21,0.001,0.0,0.0,0.0
16/09/2023,01:16:21,-0.000,0.0,0.0,0.0
16/09/2023,01:17:20,0.001,0.0,0.0,0.0
16/09/2023,01:18:20,0.002,0.0,0.0,0.0
16/09/2023,01:19:20,0.000,0.0,0.0,0.0
16/09/2023,01:20:21,0.000,0.0,0.0,0.0
16/09/2023,01:21:21,-0.000,0.0,0.0,0.0
16/09/2023,01:22:18,0.001,0.0,0.0,0.0
16/09/2023,01:23:18,0.001,0.0,0.0,0.0
16/09/2023,01:24:21,0.001,0.0,0.0,0.0
16/09/2023,01:25:20,-0.000,0.0,0.0,0.0
16/09/2023,01:26:20,0.001,0.0,0.0,0.0
16/09/2023,01:27:20,0.001,0.0,0.0,0.0
16/09/2023,01:28:20,0.002,0.0,0.0,0.0
16/09/2023,01:29:20,0.001,0.0,0.0,0.0
16/09/2023,01:30:20,-0.000,0.0,0.0,0.0
16/09/2023,01:31:20,0.001,0.0,0.0,0.0
16/09/2023,01:32:20,0.002,0.0,0.0,0.0
16/09/2023,01:33:20,0.001,0.0,0.0,0.0
16/09/2023,01:34:21,0.001,0.0,0.0,0.0
16/09/2023,01:35:20,0.001,0.0,0.0,0.0
16/09/2023,01:36:21,0.001,0.0,0.0,0.0
16/09/2023,01:37:20,0.001,0.0,0.0,0.0
16/09/2023,01:38:20,0.001,0.0,0.0,0.0
16/09/2023,01:39:20,0.002,0.0,0.0,0.0
16/09/2023,01:40:20,0.001,0.0,0.0,0.0
16/09/2023,01:41:20,0.001,0.0,0.0,0.0
16/09/2023,01:42:21,0.001,0.0,0.0,0.0
16/09/2023,01:43:20,0.001,0.0,0.0,0.0
16/09/2023,01:44:20,0.001,0.0,0.0,0.0
16/09/2023,01:45:20,0.001,0.0,0.0,0.0
16/09/2023,01:46:20,0.000,0.0,0.0,0.0
16/09/2023,01:47:20,0.001,0.0,0.0,0.0
16/09/2023,01:48:20,0.002,0.0,0.0,0.0
16/09/2023,01:49:20,0.001,0.0,0.0,0.0
16/09/2023,01:50:20,0.000,0.0,0.0,0.0
16/09/2023,01:51:20,0.001,0.0,0.0,0.0
16/09/2023,01:52:20,0.001,0.0,0.0,0.0
16/09/2023,01:53:20,0.001,0.0,0.0,0.0
16/09/2023,01:54:20,0.000,0.0,0.0,0.0
16/09/2023,01:55:20,0.000,0.0,0.0,0.0
16/09/2023,01:56:20,0.002,0.0,0.0,0.0
16/09/2023,01:57:20,0.000,0.0,0.0,0.0
16/09/2023,01:58:20,0.001,0.0,0.0,0.0
16/09/2023,01:59:20,0.001,0.0,0.0,0.0
16/09/2023,02:00:21,0.001,0.0,0.0,0.0
16/09/2023,02:01:20,0.001,0.0,0.0,0.0
16/09/2023,02:02:20,0.002,0.0,0.0,0.0
16/09/2023,02:03:21,0.002,0.0,0.0,0.0
16/09/2023,02:04:20,0.001,0.0,0.0,0.0
16/09/2023,02:05:20,0.001,0.0,0.0,0.0
16/09/2023,02:06:20,0.001,0.0,0.0,0.0
16/09/2023,02:07:20,0.001,0.0,0.0,0.0
16/09/2023,02:08:21,0.001,0.0,0.0,0.0
16/09/2023,02:09:20,0.002,0.0,0.0,0.0
16/09/2023,02:10:20,0.002,0.0,0.0,0.0
16/09/2023,02:11:20,0.000,0.0,0.0,0.0
16/09/2023,02:12:20,0.001,0.0,0.0,0.0
16/09/2023,02:13:21,0.002,0.0,0.0,0.0
16/09/2023,02:14:20,0.000,0.0,0.0,0.0
16/09/2023,02:15:20,0.001,0.0,0.0,0.0
16/09/2023,02:16:20,0.002,0.0,0.0,0.0
16/09/2023,02:17:20,0.001,0.0,0.0,0.0
16/09/2023,02:18:20,0.001,0.0,0.0,0.0
16/09/2023,02:19:21,0.000,0.0,0.0,0.0
16/09/2023,02:20:20,0.001,0.0,0.0,0.0
16/09/2023,02:21:20,0.001,0.0,0.0,0.0
16/09/2023,02:22:20,0.001,0.0,0.0,0.0
16/09/2023,02:23:20,0.001,0.0,0.0,0.0
16/09/2023,02:24:21,0.000,0.0,0.0,0.0
16/09/2023,02:25:20,0.001,0.0,0.0,0.0
16/09/2023,02:26:20,0.001,0.0,0.0,0.0
16/09/2023,02:27:20,0.001,0.0,0.0,0.0
16/09/2023,02:28:20,0.001,0.0,0.0,0.0
16/09/2023,02:29:21,0.002,0.0,0.0,0.0
16/09/2023,02:30:20,0.001,0.0,0.0,0.0
16/09/2023,02:31:20,0.001,0.0,0.0,0.0
16/09/2023,02:32:20,0.001,0.0,0.0,0.0
16/09/2023,02:33:20,0.002,0.0,0.0,0.0
16/09/2023,02:34:20,0.001,0.0,0.0,0.0
16/09/2023,02:35:21,0.001,0.0,0.0,0.0
16/09/2023,02:36:20,0.002,0.0,0.0,0.0
16/09/2023,02:37:20,0.001,0.0,0.0,0.0
16/09/2023,02:38:21,0.002,0.0,0.0,0.0
16/09/2023,02:39:20,0.002,0.0,0.0,0.0
16/09/2023,02:40:20,0.001,0.0,0.0,0.0
16/09/2023,02:41:20,0.001,0.0,0.0,0.0
16/09/2023,02:42:20,0.001,0.0,0.0,0.0
16/09/2023,02:43:21,0.001,0.0,0.0,0.0
16/09/2023,02:44:20,0.002,0.0,0.0,0.0
16/09/2023,02:45:20,0.001,0.0,0.0,0.0
16/09/2023,02:46:21,0.001,0.0,0.0,0.0
16/09/2023,02:47:20,0.001,0.0,0.0,0.0
16/09/2023,02:48:20,0.001,0.0,0.0,0.0
16/09/2023,02:49:21,0.001,0.0,0.0,0.0
16/09/2023,02:50:20,0.002,0.0,0.0,0.0
16/09/2023,02:51:21,0.001,0.0,0.0,0.0
16/09/2023,02:52:20,0.002,0.0,0.0,0.0
16/09/2023,02:53:20,0.000,0.0,0.0,0.0
16/09/2023,02:54:20,0.001,0.0,0.0,0.0
16/09/2023,02:55:20,0.001,0.0,0.0,0.0
16/09/2023,02:56:20,0.001,0.0,0.0,0.0
16/09/2023,02:57:21,0.001,0.0,0.0,0.0
16/09/2023,02:58:20,0.001,0.0,0.0,0.0
16/09/2023,02:59:20,0.001,0.0,0.0,0.0
16/09/2023,03:00:20,0.001,0.0,0.0,0.0
16/09/2023,03:01:20,0.001,0.0,0.0,0.0
16/09/2023,03:02:19,0.001,0.0,0.0,0.0
16/09/2023,03:03:18,0.001,0.0,0.0,0.0
16/09/2023,03:04:21,0.002,0.0,0.0,0.0
16/09/2023,03:05:20,0.001,0.0,0.0,0.0
16/09/2023,03:06:21,0.002,0.0,0.0,0.0
16/09/2023,03:07:20,0.001,0.0,0.0,0.0
16/09/2023,03:08:20,0.003,0.0,0.0,0.0
16/09/2023,03:09:21,0.001,0.0,0.0,0.0
16/09/2023,03:10:20,0.002,0.0,0.0,0.0
16/09/2023,03:11:20,0.001,0.0,0.0,0.0
16/09/2023,03:12:21,0.001,0.0,0.0,0.0
16/09/2023,03:13:20,0.001,0.0,0.0,0.0
16/09/2023,03:14:20,0.001,0.0,0.0,0.0
16/09/2023,03:15:21,0.000,0.0,0.0,0.0
16/09/2023,03:16:20,0.002,0.0,0.0,0.0
16/09/2023,03:17:21,0.001,0.0,0.0,0.0
16/09/2023,03:18:20,0.001,0.0,0.0,0.0
16/09/2023,03:19:20,0.001,0.0,0.0,0.0
16/09/2023,03:20:20,0.001,0.0,0.0,0.0
16/09/2023,03:21:20,0.001,0.0,0.0,0.0
16/09/2023,03:22:18,0.001,0.0,0.0,0.0
16/09/2023,03:23:18,0.001,0.0,0.0,0.0
16/09/2023,03:24:20,0.002,0.0,0.0,0.0
16/09/2023,03:25:21,0.002,0.0,0.0,0.0
16/09/2023,03:26:20,0.001,0.0,0.0,0.0
16/09/2023,03:27:20,0.001,0.0,0.0,0.0
16/09/2023,03:28:21,0.001,0.0,0.0,0.0
16/09/2023,03:29:21,0.001,0.0,0.0,0.0
16/09/2023,03:30:21,0.001,0.0,0.0,0.0
16/09/2023,03:31:21,0.002,0.0,0.0,0.0
16/09/2023,03:32:20,0.001,0.0,0.0,0.0
16/09/2023,03:33:20,0.001,0.0,0.0,0.0
16/09/2023,03:34:20,0.001,0.0,0.0,0.0
16/09/2023,03:35:20,0.001,0.0,0.0,0.0
16/09/2023,03:36:21,0.002,0.0,0.0,0.0
16/09/2023,03:37:20,0.002,0.0,0.0,0.0
16/09/2023,03:38:20,0.001,0.0,0.0,0.0
16/09/2023,03:39:21,0.002,0.0,0.0,0.0
16/09/2023,03:40:20,0.001,0.0,0.0,0.0
16/09/2023,03:41:20,0.001,0.0,0.0,0.0
16/09/2023,03:42:21,0.001,0.0,0.0,0.0
16/09/2023,03:43:20,0.002,0.0,0.0,0.0
16/09/2023,03:44:20,0.001,0.0,0.0,0.0
16/09/2023,03:45:21,0.002,0.0,0.0,0.0
16/09/2023,03:46:20,0.001,0.0,0.0,0.0
16/09/2023,03:47:19,0.000,0.0,0.0,0.0
16/09/2023,03:48:19,0.002,0.0,0.0,0.0
16/09/2023,03:49:20,0.002,0.0,0.0,0.0
16/09/2023,03:50:20,0.001,0.0,0.0,0.0
16/09/2023,03:51:21,0.002,0.0,0.0,0.0
16/09/2023,03:52:20,0.001,0.0,0.0,0.0
16/09/2023,03:53:20,0.001,0.0,0.0,0.0
16/09/2023,03:54:20,0.002,0.0,0.0,0.0
16/09/2023,03:55:18,0.002,0.0,0.0,0.0
16/09/2023,03:56:19,0.001,0.0,0.0,0.0
16/09/2023,03:57:21,0.002,0.0,0.0,0.0
16/09/2023,03:58:20,0.000,0.0,0.0,0.0
16/09/2023,03:59:20,0.001,0.0,0.0,0.0
16/09/2023,04:00:20,0.002,0.0,0.0,0.0
16/09/2023,04:01:20,0.002,0.0,0.0,0.0
16/09/2023,04:02:21,0.002,0.0,0.0,0.0
16/09/2023,04:03:20,0.001,0.0,0.0,0.0
16/09/2023,04:04:20,0.001,0.0,0.0,0.0
16/09/2023,04:05:21,0.001,0.0,0.0,0.0
16/09/2023,04:06:20,0.001,0.0,0.0,0.0
16/09/2023,04:07:21,0.001,0.0,0.0,0.0
16/09/2023,04:08:20,0.001,0.0,0.0,0.0
16/09/2023,04:09:20,0.001,0.0,0.0,0.0
16/09/2023,04:10:21,0.001,0.0,0.0,0.0
16/09/2023,04:11:21,0.001,0.0,0.0,0.0
16/09/2023,04:12:21,0.001,0.0,0.0,0.0
16/09/2023,04:13:20,0.001,0.0,0.0,0.0
16/09/2023,04:14:20,0.000,0.0,0.0,0.0
16/09/2023,04:15:20,0.001,0.0,0.0,0.0
16/09/2023,04:16:21,0.001,0.0,0.0,0.0
16/09/2023,04:17:20,0.001,0.0,0.0,0.0
16/09/2023,04:18:21,-0.000,0.0,0.0,0.0
16/09/2023,04:19:20,0.001,0.0,0.0,0.0
16/09/2023,04:20:20,0.000,0.0,0.0,0.0
16/09/2023,04:21:21,0.001,0.0,0.0,0.0
16/09/2023,04:22:20,0.001,0.0,0.0,0.0
16/09/2023,04:23:21,0.002,0.0,0.0,0.0
16/09/2023,04:24:20,0.001,0.0,0.0,0.0
16/09/2023,04:25:21,0.001,0.0,0.0,0.0
16/09/2023,04:26:21,0.001,0.0,0.0,0.0
16/09/2023,04:27:21,0.001,0.0,0.0,0.0
16/09/2023,04:28:20,0.001,0.0,0.0,0.0
16/09/2023,04:29:20,0.001,0.0,0.0,0.0
16/09/2023,04:30:20,0.001,0.0,0.0,0.0
16/09/2023,04:31:21,0.001,0.0,0.0,0.0
16/09/2023,04:32:20,0.001,0.0,0.0,0.0
16/09/2023,04:33:20,0.001,0.0,0.0,0.0
16/09/2023,04:34:21,0.001,0.0,0.0,0.0
16/09/2023,04:35:20,0.000,0.0,0.0,0.0
16/09/2023,04:36:19,0.002,0.0,0.0,0.0
16/09/2023,04:37:19,0.001,0.0,0.0,0.0
16/09/2023,04:38:20,0.001,0.0,0.0,0.0
16/09/2023,04:39:21,0.002,0.0,0.0,0.0
16/09/2023,04:40:20,0.000,0.0,0.0,0.0
16/09/2023,04:41:20,0.001,0.0,0.0,0.0
16/09/2023,04:42:23,0.001,0.0,0.0,0.0
16/09/2023,04:43:18,0.001,0.0,0.0,0.0
16/09/2023,04:44:19,0.001,0.0,0.0,0.0
16/09/2023,04:45:20,0.001,0.0,0.0,0.0
16/09/2023,04:46:21,0.002,0.0,0.0,0.0
16/09/2023,04:47:20,0.002,0.0,0.0,0.0
16/09/2023,04:48:20,0.002,0.0,0.0,0.0
16/09/2023,04:49:20,0.002,0.0,0.0,0.0
16/09/2023,04:50:21,0.001,0.0,0.0,0.0
16/09/2023,04:51:20,0.003,0.0,0.0,0.0
16/09/2023,04:52:20,0.001,0.0,0.0,0.0
16/09/2023,04:53:20,0.001,0.0,0.0,0.0
16/09/2023,04:54:21,0.001,0.0,0.0,0.0
16/09/2023,04:55:20,0.001,0.0,0.0,0.0
16/09/2023,04:56:21,0.002,0.0,0.0,0.0
16/09/2023,04:57:20,0.001,0.0,0.0,0.0
16/09/2023,04:58:21,0.001,0.0,0.0,0.0
16/09/2023,04:59:20,0.000,0.0,0.0,0.0
16/09/2023,05:00:20,0.001,0.0,0.0,0.0
16/09/2023,05:01:20,0.001,0.0,0.0,0.0
16/09/2023,05:02:20,0.001,0.0,0.0,0.0
16/09/2023,05:03:21,0.001,0.0,0.0,0.0
16/09/2023,05:04:21,0.001,0.0,0.0,0.0
16/09/2023,05:05:22,0.001,0.0,0.0,0.0
16/09/2023,05:06:21,0.001,0.0,0.0,0.0
16/09/2023,05:07:20,0.001,0.0,0.0,0.0
16/09/2023,05:08:20,0.002,0.0,0.0,0.0
16/09/2023,05:09:21,0.001,0.0,0.0,0.0
16/09/2023,05:10:20,0.001,0.0,0.0,0.0
16/09/2023,05:11:21,0.001,0.0,0.0,0.0
16/09/2023,05:12:21,0.001,0.0,0.0,0.0
16/09/2023,05:13:21,0.001,0.0,0.0,0.0
16/09/2023,05:14:21,0.001,0.0,0.0,0.0
16/09/2023,05:15:20,0.002,0.0,0.0,0.0
16/09/2023,05:16:20,0.000,0.0,0.0,0.0
16/09/2023,05:17:21,0.001,0.0,0.0,0.0
16/09/2023,05:18:20,0.001,0.0,0.0,0.0
16/09/2023,05:19:21,0.001,0.0,0.0,0.0
16/09/2023,05:20:20,0.001,0.0,0.0,0.0
16/09/2023,05:21:21,0.002,0.0,0.0,0.0
16/09/2023,05:22:20,0.002,0.0,0.0,0.0
16/09/2023,05:23:20,0.002,0.0,0.0,0.0
16/09/2023,05:24:20,0.002,0.0,0.0,0.0
16/09/2023,05:25:20,0.001,0.0,0.0,0.0
16/09/2023,05:26:21,0.002,0.0,0.0,0.0
16/09/2023,05:27:21,0.002,0.0,0.0,0.0
16/09/2023,05:28:21,0.001,0.0,0.0,0.0
16/09/2023,05:29:20,0.002,0.0,0.0,0.0
16/09/2023,05:30:21,0.001,0.0,0.0,0.0
16/09/2023,05:31:20,0.003,0.0,0.0,0.0
16/09/2023,05:32:20,0.002,0.0,0.0,0.0
16/09/2023,05:33:21,0.002,0.0,0.0,0.0
16/09/2023,05:34:21,0.002,0.0,0.0,0.0
16/09/2023,05:35:20,0.002,0.0,0.0,0.0
16/09/2023,05:36:20,0.003,0.0,0.0,0.0
16/09/2023,05:37:21,0.003,0.0,0.0,0.0
16/09/2023,05:38:20,0.003,0.0,0.0,0.0
16/09/2023,05:39:20,0.003,0.0,0.0,0.0
16/09/2023,05:40:21,0.004,0.0,0.0,0.0
16/09/2023,05:41:21,0.004,0.0,0.0,0.0
16/09/2023,05:42:20,0.004,0.0,0.0,0.0
16/09/2023,05:43:20,0.004,0.0,0.0,0.0
16/09/2023,05:44:21,0.005,0.0,0.0,0.0
16/09/2023,05:45:21,0.005,0.0,0.0,0.0
16/09/2023,05:46:21,0.005,0.0,0.0,0.0
16/09/2023,05:47:20,0.005,0.0,0.0,0.0
16/09/2023,05:48:21,0.006,0.0,0.0,0.0
16/09/2023,05:49:20,0.006,0.0,0.0,0.0
16/09/2023,05:50:21,0.007,0.0,0.0,0.0
16/09/2023,05:51:20,0.007,0.0,0.0,0.0
16/09/2023,05:52:20,0.007,0.0,0.0,0.0
16/09/2023,05:53:20,0.008,0.0,0.0,0.0
16/09/2023,05:54:20,0.008,0.0,0.0,0.0
16/09/2023,05:55:20,0.008,0.0,0.001,0.001
16/09/2023,05:56:20,0.008,0.0,0.001,0.0
16/09/2023,05:57:21,0.009,0.0,0.001,0.0
16/09/2023,05:58:20,0.009,0.0,0.001,0.0
16/09/2023,05:59:21,0.010,0.0,0.001,0.0
16/09/2023,06:00:20,0.011,0.0,0.001,0.0
16/09/2023,06:01:20,0.010,0.0,0.001,0.0
16/09/2023,06:02:21,0.011,0.0,0.002,0.001
16/09/2023,06:03:21,0.011,0.0,0.002,0.0
16/09/2023,06:04:19,0.012,0.0,0.002,0.0
16/09/2023,06:05:19,0.012,0.0,0.002,0.0
16/09/2023,06:06:20,0.013,0.0,0.002,0.0
16/09/2023,06:07:21,0.014,0.0,0.003,0.001
16/09/2023,06:08:21,0.014,0.0,0.003,0.0
16/09/2023,06:09:21,0.013,0.0,0.003,0.0
16/09/2023,06:10:21,0.015,0.0,0.003,0.0
16/09/2023,06:11:18,0.016,0.0,0.004,0.001
16/09/2023,06:12:18,0.016,0.0,0.004,0.0
16/09/2023,06:13:21,0.016,0.0,0.004,0.0
16/09/2023,06:14:20,0.019,0.0,0.004,0.0
16/09/2023,06:15:20,0.019,0.0,0.005,0.001
16/09/2023,06:16:21,0.018,0.0,0.005,0.0
16/09/2023,06:17:20,0.020,0.0,0.005,0.0
16/09/2023,06:18:20,0.020,0.0,0.006,0.001
16/09/2023,06:20:21,0.022,0.0,0.006,0.0
16/09/2023,06:21:21,0.022,0.0,0.007,0.001
16/09/2023,06:22:21,0.022,0.0,0.007,0.0
16/09/2023,06:23:20,0.024,0.0,0.007,0.0
16/09/2023,06:24:21,0.024,0.0,0.008,0.001
16/09/2023,06:25:20,0.025,0.0,0.008,0.0
16/09/2023,06:26:21,0.025,0.0,0.009,0.001
16/09/2023,06:27:21,0.026,0.0,0.009,0.0
16/09/2023,06:28:21,0.027,0.0,0.01,0.001
16/09/2023,06:29:21,0.029,0.0,0.01,0.0
16/09/2023,06:30:20,0.030,0.0,0.01,0.0
16/09/2023,06:31:21,0.030,0.0,0.011,0.001
16/09/2023,06:32:20,0.031,0.0,0.011,0.0
16/09/2023,06:33:20,0.033,0.0,0.012,0.001
16/09/2023,06:34:21,0.034,0.0,0.013,0.001
16/09/2023,06:35:20,0.036,0.0,0.013,0.0
16/09/2023,06:36:21,0.037,0.0,0.014,0.001
16/09/2023,06:37:21,0.038,0.0,0.014,0.0
16/09/2023,06:38:21,0.039,0.0,0.015,0.001
16/09/2023,06:39:20,0.040,0.0,0.016,0.001
16/09/2023,06:40:20,0.042,0.0,0.016,0.0
16/09/2023,06:41:21,0.043,0.0,0.017,0.001
16/09/2023,06:42:21,0.044,0.0,0.018,0.001
16/09/2023,06:43:21,0.046,0.0,0.019,0.001
16/09/2023,06:44:21,0.048,0.0,0.019,0.0
16/09/2023,06:45:21,0.049,0.0,0.02,0.001
16/09/2023,06:46:21,0.050,0.0,0.021,0.001
16/09/2023,06:47:21,0.051,0.0,0.022,0.001
16/09/2023,06:48:21,0.052,0.0,0.023,0.001
16/09/2023,06:49:20,0.054,0.0,0.024,0.001
16/09/2023,06:50:20,0.056,0.0,0.024,0.0
16/09/2023,06:51:19,0.056,0.0,0.025,0.001
16/09/2023,06:52:19,0.057,0.0,0.026,0.001
16/09/2023,06:53:21,0.058,0.0,0.027,0.001
16/09/2023,06:54:20,0.060,0.0,0.028,0.001
16/09/2023,06:55:21,0.060,0.0,0.029,0.001
16/09/2023,06:56:20,0.063,0.0,0.03,0.001
16/09/2023,06:57:20,0.063,0.0,0.031,0.001
16/09/2023,06:58:21,0.064,0.0,0.032,0.001
16/09/2023,06:59:21,0.065,0.0,0.033,0.001
16/09/2023,07:00:21,0.066,0.0,0.035,0.002
16/09/2023,07:01:20,0.066,0.0,0.036,0.001
16/09/2023,07:02:21,0.067,0.0,0.037,0.001
16/09/2023,07:03:20,0.068,0.0,0.038,0.001
16/09/2023,07:04:20,0.071,0.0,0.039,0.001
16/09/2023,07:05:21,0.072,0.0,0.04,0.001
16/09/2023,07:06:21,0.073,0.0,0.041,0.001
16/09/2023,07:07:21,0.076,0.0,0.043,0.002
16/09/2023,07:08:21,0.079,0.0,0.044,0.001
16/09/2023,07:09:21,0.082,0.0,0.045,0.001
16/09/2023,07:10:21,0.085,0.0,0.047,0.002
16/09/2023,07:11:21,0.088,0.0,0.048,0.001
16/09/2023,07:12:21,0.091,0.0,0.05,0.002
16/09/2023,07:13:21,0.093,0.0,0.051,0.001
16/09/2023,07:14:20,0.096,0.0,0.053,0.002
16/09/2023,07:15:20,0.100,0.0,0.054,0.001
16/09/2023,07:16:21,0.103,0.0,0.056,0.002
16/09/2023,07:17:21,0.105,0.0,0.058,0.002
16/09/2023,07:18:21,0.110,0.0,0.06,0.002
16/09/2023,07:19:21,0.114,0.0,0.061,0.001
16/09/2023,07:20:21,0.117,0.0,0.063,0.002
16/09/2023,07:21:20,0.120,0.0,0.065,0.002
16/09/2023,07:22:20,0.123,0.0,0.067,0.002
16/09/2023,07:23:21,0.127,0.0,0.069,0.002
16/09/2023,07:24:20,0.129,0.0,0.072,0.003
16/09/2023,07:25:20,0.132,0.0,0.074,0.002
16/09/2023,07:26:21,0.135,0.0,0.076,0.002
16/09/2023,07:27:20,0.138,0.0,0.078,0.002
16/09/2023,07:28:21,0.140,0.0,0.081,0.003
16/09/2023,07:29:20,0.144,0.0,0.083,0.002
16/09/2023,07:30:20,0.146,0.0,0.085,0.002
16/09/2023,07:31:21,0.150,0.0,0.088,0.003
16/09/2023,07:32:21,0.152,0.0,0.09,0.002
16/09/2023,07:33:21,0.156,0.0,0.093,0.003
16/09/2023,07:34:20,0.159,0.0,0.096,0.003
16/09/2023,07:35:21,0.162,0.0,0.098,0.002
16/09/2023,07:36:20,0.165,0.0,0.101,0.003
16/09/2023,07:37:19,0.169,0.0,0.104,0.003
16/09/2023,07:38:19,0.172,0.0,0.106,0.002
16/09/2023,07:39:21,0.175,0.0,0.109,0.003
16/09/2023,07:40:21,0.178,0.0,0.112,0.003
16/09/2023,07:41:21,0.181,0.0,0.115,0.003
16/09/2023,07:42:21,0.176,0.0,0.118,0.003
16/09/2023,07:43:21,0.177,0.0,0.121,0.003
16/09/2023,07:44:20,0.182,0.0,0.124,0.003
16/09/2023,07:45:21,0.186,0.0,0.127,0.003
16/09/2023,07:46:20,0.187,0.0,0.131,0.004
16/09/2023,07:47:20,0.182,0.0,0.134,0.003
16/09/2023,07:48:21,0.185,0.0,0.137,0.003
16/09/2023,07:49:20,0.188,0.0,0.14,0.003
16/09/2023,07:50:20,0.195,0.0,0.143,0.003
16/09/2023,07:51:21,0.198,0.0,0.146,0.003
16/09/2023,07:52:20,0.204,0.0,0.15,0.004
16/09/2023,07:53:21,0.205,0.0,0.153,0.003
16/09/2023,07:54:20,0.209,0.0,0.156,0.003
16/09/2023,07:55:21,0.210,0.0,0.16,0.004
16/09/2023,07:56:21,0.226,1.0,0.164,0.004
16/09/2023,07:57:21,0.234,1.0,0.167,0.003
16/09/2023,07:58:21,0.241,1.0,0.172,0.005
16/09/2023,07:59:21,0.246,1.0,0.175,0.003
16/09/2023,08:00:21,0.251,1.0,0.18,0.005
16/09/2023,08:01:21,0.253,1.0,0.184,0.004
16/09/2023,08:02:21,0.256,1.0,0.188,0.004
16/09/2023,08:03:21,0.260,1.0,0.192,0.004
16/09/2023,08:04:21,0.268,1.0,0.197,0.005
16/09/2023,08:05:21,0.270,1.0,0.201,0.004
16/09/2023,08:06:20,0.275,1.0,0.206,0.005
16/09/2023,08:07:21,0.279,1.0,0.21,0.004
16/09/2023,08:08:20,0.280,1.0,0.215,0.005
16/09/2023,08:09:20,0.283,1.0,0.22,0.005
16/09/2023,08:10:21,0.292,1.0,0.225,0.005
16/09/2023,08:11:21,0.288,1.0,0.229,0.004
16/09/2023,08:12:21,0.300,1.0,0.234,0.005
16/09/2023,08:13:21,0.305,1.0,0.239,0.005
16/09/2023,08:14:21,0.307,1.0,0.244,0.005
16/09/2023,08:15:20,0.307,1.0,0.249,0.005
16/09/2023,08:16:20,0.316,1.0,0.255,0.006
16/09/2023,08:17:20,0.312,1.0,0.26,0.005
16/09/2023,08:18:21,0.309,1.0,0.265,0.005
16/09/2023,08:19:21,0.324,1.0,0.27,0.005
16/09/2023,08:20:21,0.329,1.0,0.276,0.006
16/09/2023,08:21:21,0.327,1.0,0.281,0.005
16/09/2023,08:22:21,0.327,1.0,0.287,0.006
16/09/2023,08:23:21,0.318,1.0,0.292,0.005
16/09/2023,08:24:21,0.323,1.0,0.298,0.006
16/09/2023,08:25:21,0.328,1.0,0.303,0.005
16/09/2023,08:26:21,0.332,1.0,0.309,0.006
16/09/2023,08:27:18,0.335,1.0,0.314,0.005
16/09/2023,08:28:19,0.333,1.0,0.32,0.006
16/09/2023,08:29:21,0.347,1.0,0.325,0.005
16/09/2023,08:30:21,0.358,1.0,0.331,0.006
16/09/2023,08:31:21,0.357,1.0,0.337,0.006
16/09/2023,08:32:21,0.361,1.0,0.343,0.006
16/09/2023,08:33:21,0.377,1.0,0.349,0.006
16/09/2023,08:34:21,0.375,1.0,0.356,0.007
16/09/2023,08:35:21,0.388,1.0,0.362,0.006
16/09/2023,08:36:21,0.384,1.0,0.369,0.007
16/09/2023,08:37:21,0.413,1.0,0.375,0.006
16/09/2023,08:38:21,0.378,1.0,0.382,0.007
16/09/2023,08:39:21,0.398,1.0,0.388,0.006
16/09/2023,08:40:21,0.368,1.0,0.394,0.006
16/09/2023,08:41:20,0.385,1.0,0.401,0.007
16/09/2023,08:42:20,0.390,1.0,0.407,0.006
16/09/2023,08:43:20,0.363,1.0,0.414,0.007
16/09/2023,08:44:20,0.379,1.0,0.42,0.006
16/09/2023,08:45:21,0.376,1.0,0.426,0.006
16/09/2023,08:46:21,0.401,1.0,0.433,0.007
16/09/2023,08:47:21,0.387,1.0,0.439,0.006
16/09/2023,08:48:21,0.391,1.0,0.446,0.007
16/09/2023,08:49:21,0.405,1.0,0.453,0.007
16/09/2023,08:50:21,0.410,1.0,0.459,0.006
16/09/2023,08:51:21,0.414,1.0,0.466,0.007
16/09/2023,08:52:21,0.406,1.0,0.473,0.007
16/09/2023,08:53:21,0.385,1.0,0.479,0.006
16/09/2023,08:54:21,0.388,1.0,0.486,0.007
16/09/2023,08:55:21,0.404,1.0,0.492,0.006
16/09/2023,08:56:20,0.400,1.0,0.499,0.007
16/09/2023,08:57:20,0.375,1.0,0.505,0.006
16/09/2023,08:58:21,0.375,1.0,0.512,0.007
16/09/2023,08:59:21,0.350,1.0,0.518,0.006
16/09/2023,09:00:21,0.357,1.0,0.524,0.006
16/09/2023,09:01:22,0.367,1.0,0.53,0.006
16/09/2023,09:02:21,0.398,1.0,0.536,0.006
16/09/2023,09:03:21,0.388,1.0,0.543,0.007
16/09/2023,09:04:21,0.389,1.0,0.549,0.006
16/09/2023,09:05:21,0.387,1.0,0.556,0.007
16/09/2023,09:06:19,0.389,1.0,0.562,0.006
16/09/2023,09:07:19,0.401,1.0,0.569,0.007
16/09/2023,09:08:21,0.413,1.0,0.575,0.006
16/09/2023,09:09:21,0.430,1.0,0.583,0.008
16/09/2023,09:10:21,0.482,1.0,0.59,0.007
16/09/2023,09:11:21,0.481,1.0,0.598,0.008
16/09/2023,09:12:21,0.430,1.0,0.606,0.008
16/09/2023,09:13:21,0.440,1.0,0.613,0.007
16/09/2023,09:14:21,0.431,1.0,0.62,0.007
16/09/2023,09:15:21,0.438,1.0,0.627,0.007
16/09/2023,09:16:21,0.422,1.0,0.635,0.008
16/09/2023,09:17:21,0.443,1.0,0.642,0.007
16/09/2023,09:18:22,0.413,1.0,0.649,0.007
16/09/2023,09:19:21,0.414,1.0,0.656,0.007
16/09/2023,09:20:19,0.426,1.0,0.662,0.006
16/09/2023,09:21:19,0.406,1.0,0.669,0.007
16/09/2023,09:22:21,0.381,1.0,0.676,0.007
16/09/2023,09:23:21,0.369,1.0,0.682,0.006
16/09/2023,09:24:21,0.383,1.0,0.689,0.007
16/09/2023,09:25:21,0.376,1.0,0.695,0.006
16/09/2023,09:26:21,0.372,1.0,0.701,0.006
16/09/2023,09:27:21,0.404,1.0,0.708,0.007
16/09/2023,09:28:21,0.399,1.0,0.714,0.006
16/09/2023,09:29:21,0.407,1.0,0.721,0.007
16/09/2023,09:30:21,0.425,1.0,0.728,0.007
16/09/2023,09:31:21,0.416,1.0,0.735,0.007
16/09/2023,09:32:20,0.398,1.0,0.742,0.007
16/09/2023,09:33:21,0.415,1.0,0.749,0.007
16/09/2023,09:34:21,0.428,1.0,0.756,0.007
16/09/2023,09:35:21,0.423,1.0,0.763,0.007
16/09/2023,09:36:21,0.461,1.0,0.77,0.007
16/09/2023,09:37:19,0.488,1.0,0.778,0.008
16/09/2023,09:38:19,0.468,1.0,0.786,0.008
16/09/2023,09:39:21,0.481,1.0,0.794,0.008
16/09/2023,09:40:21,0.532,1.0,0.803,0.009
16/09/2023,09:41:21,0.534,1.0,0.812,0.009
16/09/2023,09:42:21,0.520,1.0,0.82,0.008
16/09/2023,09:43:21,0.554,1.0,0.829,0.009
16/09/2023,09:44:21,0.545,1.0,0.838,0.009
16/09/2023,09:45:21,0.605,1.0,0.848,0.01
16/09/2023,09:46:21,0.562,1.0,0.857,0.009
16/09/2023,09:47:21,0.591,1.0,0.867,0.01
16/09/2023,09:48:21,0.594,1.0,0.877,0.01
16/09/2023,09:49:19,0.634,1.0,0.887,0.01
16/09/2023,09:50:19,0.602,1.0,0.897,0.01
16/09/2023,09:51:21,0.666,2.0,0.908,0.011
16/09/2023,09:52:21,0.697,2.0,0.919,0.011
16/09/2023,09:53:21,0.673,2.0,0.93,0.011
16/09/2023,09:54:21,0.650,1.0,0.942,0.012
16/09/2023,09:55:21,0.754,2.0,0.953,0.011
16/09/2023,09:56:21,0.688,2.0,0.965,0.012
16/09/2023,09:57:21,0.691,2.0,0.977,0.012
16/09/2023,09:58:21,0.640,1.0,0.988,0.011
16/09/2023,09:59:21,0.661,2.0,0.999,0.011
16/09/2023,10:00:21,0.654,2.0,1.009,0.01
16/09/2023,10:01:21,0.650,1.0,1.02,0.011
16/09/2023,10:02:20,0.685,2.0,1.031,0.011
16/09/2023,10:03:21,0.655,2.0,1.042,0.011
16/09/2023,10:04:19,0.703,2.0,1.054,0.012
16/09/2023,10:05:19,0.705,2.0,1.065,0.011
16/09/2023,10:06:21,0.676,2.0,1.077,0.012